{"data":{"norad_id":57867,"epoch":"2026-09-20T17:00:53.567712Z","epoch_age_seconds":116523,"freshness":"FRESH","line1":"1 57867U 23144D   26263.70895333  .00009323  00000+0  34785-3 0  9990","line2":"2 57867  43.0023 263.7934 0001365 268.1760  91.8935 15.27583577167476","mean_motion":15.27583577,"eccentricity":0.0001365,"inclination_deg":43.0023,"raan_deg":263.7934,"arg_perigee_deg":268.176,"mean_anomaly_deg":91.8935,"bstar":0.00034785,"rev_number":16747,"period_min":94.266527977997,"perigee_km":482.10183479565,"apogee_km":483.97493567582,"semimajor_km":6861.1753852357,"source":"CELESTRAK","updated_at":"2026-09-21T09:00:33.716276Z"}}